Starlink 32265

operational
NORAD ID: 60415 Int'l Des: 2024-141 Owner: SPXS Country: US Constellation: starlink
LEOCIRCULAR

Starlink 32265について

説明を読み込み中...

リアルタイム位置

3D地球を読み込み中...

次回通過

高度履歴

Altitude vs Time

uPlot chart will show altitude changes over time

軌道要素

1 60415U 24141T 25259.19801746 -.00000977 00000-0 -20865-4 0 9997
2 60415 53.1615 333.1905 0000892 94.9875 265.1228 15.30207756 62868
Epoch: Sep 16, 2025 • Age: 11 hours

現在のステータス

高度 479.9 km
速度 7.63 km/s
衛星直下点 47.87°N, 143.56°W
打ち上げ日 Aug 10, 2024
運用期間 1.1 years
タイプ internet

技術仕様

分類 Payload
質量 730.00 kg
乾燥質量 700.00 kg
総質量 730.00 kg
長さ 0.30 m
直径 4.10 m
スパン 29.00 m
形状 Box + pan
製造者 SPXS
バスタイプ Starlink V2M
フェーズステータス In Orbit
所有者/国 SPXS/US

大規模コンステレーション

Loading constellations...